User: anonymous   Login
Location: Songkhla
(7.2000°N, 100.6000°E)
Time: 02:51:23
(UTC+07:00)
Language:

JAISAT 1 - Orbit

View from above orbital plane
View from above orbital plane
View from above satellite
View from above satellite

Ground track
Ground track

The orbit is defined by the following mean orbital elements,

1 44419U 19038F   24161.30699751  .14138513  27681-5  32002-3 0  9992
2 44419  97.6384 170.8746 0011571 240.3842 119.6307 16.45656077273974
Epoch (UTC): 09 June 2024 07:22:04
Eccentricity: 0.0011571
inclination: 97.6384°
perigee height: 143 km
apogee height: 158 km
right ascension of ascending node: 170.8746°
argument of perigee: 240.3842°
revolutions per day: 16.45656077
mean anomaly at epoch: 119.6307°

The dashed part of the orbit path shows where the satellite is in the earth's shadow,  

DLR